GLOBALSTAR M066 [+]

Last updated on Fri Dec 29 2023 00:02:56 GMT+0000 (Coordinated Universal Time)

1 32265U 07048C 23361.94280309 -.00000093 00000+0 61103-4 0 9994 2 32265 51.9650 187.1492 0001952 105.6527 41.6031 12.62279002749029

Satellite not in orbit

GLOBALSTAR M066 [+]